Regional Weather Roundup
Issued by NWS

Home | Current Version | Previous Version | Graphics & Text | Print | Product List | Glossary On
Versions: 1 2 3 4 5 6 7 8 9 10 11 12 13 14 15 16 17 18 19 20 21 22 23 24 25 26 27 28 29 30 31 32 33 34 35 36 37 38 39 40 41 42 43 44 45 46 47 48
000
ASUS45 KBOU 302307
RWRCO

WEATHER ROUNDUP FOR COLORADO
NATIONAL WEATHER SERVICE DENVER/BOULDER CO
500 PM MDT SUN AUG 30 2015

NOTE: "FAIR" INDICATES FEW OR NO CLOUDS BELOW 12000 FEET WITH NO
SIGNIFICANT WEATHER AND/OR OBSTRUCTIONS TO VISIBILITY.

COZ001>005-013-030-031-310000-
...NORTHWEST COLORADO...

CITY           SKY/WX    TMP DP  RH WIND       PRES   REMARKS
CRAIG          CLOUDY    77  54  44 CALM      30.09F
HAYDEN         NOT AVBL
MEEKER         PTSUNNY   80  50  34 S7        30.11F
MOUNT WERNER   NOT AVBL
STEAMBOAT SPGS PTSUNNY   79  43  27 NW5       30.13F
WALDEN         PTSUNNY   77  36  22 SW9       30.25F
$$

COZ006>008-011-310000-
...WEST CENTRAL VALLEYS...

CITY           SKY/WX    TMP DP  RH WIND       PRES   REMARKS
GRAND JUNCTION PTSUNNY   88  44  21 SE17      29.98F
MONTROSE       PTSUNNY   76  56  49 E14       30.12F
EAGLE          MOSUNNY   84  37  18 W6        30.15F
RIFLE          PTSUNNY   87  42  20 SE14      30.04F
DELTA          LGT RAIN  86  51  30 E7        30.06R
NUCLA          PTSUNNY   88  36  15 SW9       30.11F
$$

COZ017>023-064>068-310000-
...SOUTHWEST COLORADO...

CITY           SKY/WX    TMP DP  RH WIND       PRES   REMARKS
DURANGO        CLOUDY    81  42  25 SW10      30.18F
CORTEZ         SUNNY     83  49  30 SW21G32   30.12R
PAGOSA SPRINGS MOSUNNY   80  36  20 N6        30.26F
TELLURIDE      PTSUNNY   70  43  38 SE5       30.39F
WOLF CREEK PAS MOSUNNY   57  37  47 W12G21    30.63F
$$

COZ009-010-012-014-032>034-037-058>063-310000-
...CENTRAL COLORADO...

CITY           SKY/WX    TMP DP  RH WIND       PRES   REMARKS
ASPEN          PTSUNNY   77  41  27 VRB3      30.22F
BUENA VISTA    MOSUNNY   79  28  15 SE10      30.22S
COPPER MTN     CLOUDY    63  32  31 W20       30.59S THUNDER
BERTHOUD PASS  PTSUNNY   59  46  63 MISG      30.63F
COTTONWOOD PAS PTSUNNY   73  27  17 SW12      30.40S
GUNNISON       PTSUNNY   72  39  30 S12G21    30.30R
KREMMLING      PTSUNNY   77  32  19 NE6       30.21F
LEADVILLE      PTSUNNY   69  28  21 W3        30.38F
MONARCH PASS   MOSUNNY   59  32  36 SW18G24   30.69F
SALIDA         MOSUNNY   81  35  19 S16G23    30.26F
SUNLIGHT       CLOUDY    61  43  51 CALM      30.52S
WILKERSON PASS MOSUNNY   70  27  19 CALM      30.55F
$$

COZ069>075-310000-
...SAN LUIS VALLEY/SANGRE DE CRISTO MOUNTAINS...

CITY           SKY/WX    TMP DP  RH WIND       PRES   REMARKS
ALAMOSA        MOSUNNY   81  35  19 SW5       30.23F
LA VETA PASS   MOSUNNY   75  32  20 S5        30.45F
SAGUACHE       PTSUNNY   72  43  35 W20       30.28S
$$

COZ035-036-038>040-310000-
...NORTHERN COLORADO FRONT RANGE...

CITY           SKY/WX    TMP DP  RH WIND       PRES   REMARKS
DENVER INTL AP MOSUNNY   94  29  10 E8        29.98F
DMNS CITY PARK   N/A     92  34  12 SE6       29.97F
AURORA         MOSUNNY   92  34  12 S7        30.01F
FRONT RANGE AP MOSUNNY   93  30  10 E12       30.01F
ERIE MUNI ARPT MOSUNNY   95  28   9 SE9       29.95F
BOULDER MUN AP MOSUNNY   93  36  13 SE8       29.96F
CENTENNIAL     MOSUNNY   90  32  12 VRB5      30.03F
BROOMFIELD     MOSUNNY   93  34  12 SE10      30.01F
FORT COLLINS   MOSUNNY   97  37  12 SE12G18     N/A
LONGMONT       MOSUNNY   96  35  12 SE8       29.95F
$$

COZ041-046-047-076>085-087-088-310000-
...PIKES PEAK/PALMER DIVIDE AND SOUTHERN FOOTHILLS...

CITY           SKY/WX    TMP DP  RH WIND       PRES   REMARKS
COLO. SPRINGS  MOSUNNY   88  34  14 SE14G21   30.08F
A. F. ACADEMY  MOSUNNY   86  37  17 SE13G21   30.10F
ELLICOTT       NOT AVBL
FALCON         MOSUNNY   84  36  17 MISG      30.16F
FORT CARSON    MOSUNNY   90  40  17 SE15      30.04F
LIMON          SUNNY     89  42  19 S10       30.03F
MONUMENT HILL  SUNNY     82  32  16 S6        30.15F
TRINIDAD       MOSUNNY   91  38  15 E9        30.06F
$$

COZ042>045-048>051-090-091-310000-
...NORTHEAST COLORADO...

CITY           SKY/WX    TMP DP  RH WIND       PRES   REMARKS
GREELEY ARPT   SUNNY     97  37  12 SE9       29.93F
AKRON          SUNNY     94  42  16 S13       29.95F
BURLINGTON     SUNNY     88  46  23 S17G26    29.99F
WRAY           CLOUDY    96  39  13 S20G28    29.93F
STERLING       SUNNY     97  39  13 SW9       29.88F
HOLYOKE        SUNNY     95  46  18 S15G24    29.91F
FORT MORGAN    SUNNY     95  32  11 SE7       29.93F
$$

COZ086-089-092>099-310000-
...SOUTHEAST COLORADO...

CITY           SKY/WX    TMP DP  RH WIND       PRES   REMARKS
PUEBLO         SUNNY     96  40  14 SE15      29.94F
LA JUNTA       SUNNY     96  42  15 SE7       29.95F
LAMAR          NOT AVBL
SPRINGFIELD    NOT AVBL
$$



USA.gov is the U.S. government's official web portal to all federal, state and local government web resources and services.